NOAA 16 DEB

Satellite information

Favourite Embed

Satellite Type and Status

DEBRISIN ORBIT

Key statistics

Satellite NOAA 16 DEB at a glance.

Uptime

8997

Days in orbit

Revolutions

≈ 14.9

Per day

Orbit

SSO

Sun Synchronous Orbit

Inclination

98.8

Latest

Satellite identification and parameters

Extended collection of information and parameters for NOAA 16 DEB.

Object identification

Identified? True

Debris? True

Object name: NOAA 16 DEB

International designator: 2000-055BJ

Object number (NORAD): 41127

Object ID (CCSDS): 41127

Country: UNITED STATES OF AMERICA (US)

Current information (Y/N): Y

RCS size: SMALL

Orbital parameters

Period: 96.387 minutes

Inclination: 98.8496 deg

SMA: 6963.694 km

Apoapsis: 605.782 km

Periapsis: 565.337 km

RAAN: 1.1719 deg

Eccentricy: 0.002904

Argument of periapsis: 314.0331 deg

Mean anomaly: 45.8493 deg

Mean motion: 14.93974667 rev/day

Mean motion (dot): 0.00043742 rev/day2

B* drag term: 0.0040552 1/REarth

Two-line elements (TLE)

Creation date: May 10, 2025, 2:32 a.m.

Reference frame: TEME

Reference center: EARTH

Epoch: May 9, 2025, 2:21 a.m. UTC

TLE line 0: 0 NOAA 16 DEB

TLE line 1: 1 41127U 00055BJ 25129.09793324 .00043742 00000-0 40552-2 0 9999

TLE line 2: 2 41127 98.8496 1.1719 0029040 314.0331 45.8493 14.93974667495681

Live tracking on map

Real-time ground track for satellite NOAA 16 DEB.

In-orbit conjunctions

A list of the most updated potential collisions computed for object NOAA 16 DEB.

Target Orbit TCA Probability of collision Miss distance Type
OBJECT D SSO 2025-05-05 17:40:40 0.000245464 49.0 (m) UNKNOWN
CZ-6A DEB LEO 2024-11-10 02:40:40 0.000507444 681.0 (m) DEBRIS
NOAA 17 DEB SSO 2024-11-09 18:25:06 0.0001568133 660.0 (m) DEBRIS

Associated space launch

The NOAA K, L and M POES satellites begin the fifth generation of improved environmental monitoring in support of NOAA missions. The instrument payload has significant improvements and additions/deletions. The instrument changes have effected the spacecraft subsystems and data formats.

NOAA 16 DEB was lifted into orbit during the mission ‘Titan II SLV | NOAA 16’, on board a Titan II SLV space rocket.

The launch took place on Sept. 21, 2000, 10:22 a.m. from Space Launch Complex 4W.

For more information about the launch, click the button.

Launch to space Titan II SLV | NOAA 16
Titan II SLV | NOAA 16

Agency: N/A

Status: Launch Successful

Launch date: Sept. 21, 2000, 10:22 a.m. UTC

Rocket: Titan II SLV

Launch pad: Space Launch Complex 4W

Location: Vandenberg SFB, CA, USA

...

Latest news about this satellite

There are no fresh news available about this satellite. Check back as we update our databases every day.


Newsletter sign-up

Weekly statistics, charts and insights to help you stay on top of the space industry.